| time (UTC) | temp C | wind direction | speed KPH | gust KPH | rain 1hr cm | rain 24hr cm | rain mn cm | humidity % | barometer mb |
| 20260510113009 | 13 | 57 | 14.5 | 27.4 | 0.00 | 0.00 | 0.00 | 52 | 1015.1 |
| 20260510111503 | 13 | 89 | 14.5 | 32.2 | 0.00 | 0.00 | 0.00 | 53 | 1015.1 |
| 20260510110006 | 13 | 23 | 11.3 | 30.6 | 0.00 | 0.00 | 0.00 | 54 | 1015.2 |
| 20260510104605 | 13 | 27 | 16.1 | 32.2 | 0.00 | 0.00 | 0.00 | 54 | 1015.2 |
| 20260510103100 | 13 | 68 | 16.1 | 32.2 | 0.00 | 0.00 | 0.00 | 55 | 1015.4 |
| 20260510101558 | 13 | 18 | 14.5 | 30.6 | 0.00 | 0.00 | 0.00 | 54 | 1015.3 |
| 20260510100056 | 13 | 32 | 12.9 | 27.4 | 0.00 | 0.00 | 0.00 | 54 | 1015.4 |
| 20260510094608 | 13 | 13 | 17.7 | 30.6 | 0.00 | 0.00 | 0.00 | 54 | 1015.4 |
| 20260510093117 | 13 | 27 | 14.5 | 33.8 | 0.00 | 0.00 | 0.00 | 56 | 1015.6 |
| 20260510091553 | 13 | 330 | 11.3 | 30.6 | 0.00 | 0.00 | 0.00 | 55 | 1015.6 |
| 20260510090054 | 13 | 13 | 14.5 | 30.6 | 0.00 | 0.00 | 0.00 | 54 | 1015.7 |
| 20260510084554 | 13 | 32 | 12.9 | 25.7 | 0.00 | 0.00 | 0.00 | 54 | 1015.7 |
| 20260510083054 | 13 | 356 | 12.9 | 35.4 | 0.00 | 0.00 | 0.00 | 53 | 1015.8 |
| 20260510081550 | 13 | 342 | 14.5 | 29.0 | 0.00 | 0.00 | 0.00 | 52 | 1015.9 |
| 20260510080050 | 13 | 18 | 9.7 | 30.6 | 0.00 | 0.00 | 0.00 | 53 | 1016.0 |
| 20260510074549 | 13 | 57 | 12.9 | 24.1 | 0.00 | 0.00 | 0.00 | 53 | 1016.0 |
| 20260510073049 | 13 | 50 | 12.9 | 24.1 | 0.00 | 0.00 | 0.00 | 53 | 1016.2 |
| 20260510071552 | 13 | 37 | 11.3 | 25.7 | 0.00 | 0.00 | 0.00 | 51 | 1016.1 |
| 20260510070044 | 13 | 44 | 8.0 | 33.8 | 0.00 | 0.00 | 0.00 | 48 | 1016.0 |
| 20260510064543 | 13 | 59 | 12.9 | 29.0 | 0.00 | 0.00 | 0.00 | 47 | 1015.9 |
| 20260510063041 | 13 | 77 | 14.5 | 29.0 | 0.00 | 0.00 | 0.00 | 47 | 1015.9 |
| 20260510061540 | 12 | 37 | 11.3 | 22.5 | 0.00 | 0.00 | 0.00 | 49 | 1015.9 |
| 20260510060035 | 12 | 10 | 9.7 | 20.9 | 0.00 | 0.00 | 0.00 | 50 | 1015.7 |
| 20260510054534 | 12 | 56 | 8.0 | 20.9 | 0.00 | 0.00 | 0.00 | 51 | 1015.7 |
| 20260510053050 | 12 | 75 | 11.3 | 22.5 | 0.00 | 0.00 | 0.00 | 52 | 1015.7 |
| 20260510051534 | 12 | 38 | 8.0 | 19.3 | 0.00 | 0.00 | 0.00 | 53 | 1015.8 |
| 20260510050030 | 12 | 37 | 6.4 | 24.1 | 0.00 | 0.00 | 0.00 | 53 | 1016.0 |
| 20260510044528 | 11 | 63 | 8.0 | 19.3 | 0.00 | 0.00 | 0.00 | 55 | 1015.9 |
| 20260510043039 | 11 | 47 | 9.7 | 17.7 | 0.00 | 0.00 | 0.00 | 57 | 1015.8 |
| 20260510041527 | 11 | 43 | 9.7 | 25.7 | 0.00 | 0.00 | 0.00 | 57 | 1015.9 |
| 20260510040034 | 11 | 53 | 4.8 | 17.7 | 0.00 | 0.00 | 0.00 | 58 | 1015.8 |
| 20260510034520 | 11 | 41 | 8.0 | 20.9 | 0.00 | 0.00 | 0.00 | 58 | 1015.9 |
| 20260510033018 | 12 | 59 | 9.7 | 19.3 | 0.00 | 0.00 | 0.00 | 58 | 1016.0 |
| 20260510031522 | 12 | 31 | 6.4 | 17.7 | 0.00 | 0.00 | 0.00 | 58 | 1016.1 |
| 20260510030015 | 12 | 104 | 9.7 | 19.3 | 0.00 | 0.00 | 0.00 | 58 | 1016.0 |
| 20260510024651 | 12 | 44 | 4.8 | 20.9 | 0.00 | 0.00 | 0.00 | 58 | 1016.0 |
| 20260510023011 | 12 | 32 | 4.8 | 19.3 | 0.00 | 0.00 | 0.00 | 55 | 1016.0 |
| 20260510021521 | 12 | 77 | 9.7 | 22.5 | 0.00 | 0.00 | 0.00 | 56 | 1016.1 |
| 20260510020005 | 12 | 352 | 4.8 | 16.1 | 0.00 | 0.00 | 0.00 | 56 | 1016.2 |
| 20260510014506 | 12 | 58 | 8.0 | 14.5 | 0.00 | 0.00 | 0.00 | 57 | 1016.3 |
| 20260510013001 | 12 | 32 | 3.2 | 17.7 | 0.00 | 0.00 | 0.00 | 57 | 1016.4 |
| 20260510011558 | 12 | 85 | 8.0 | 16.1 | 0.00 | 0.00 | 0.00 | 58 | 1016.3 |
| 20260510010055 | 12 | 72 | 8.0 | 17.7 | 0.00 | 0.00 | 0.00 | 58 | 1016.6 |
| 20260510004556 | 12 | 49 | 6.4 | 20.9 | 0.00 | 0.00 | 0.00 | 58 | 1016.6 |
| 20260510003052 | 12 | 68 | 8.0 | 16.1 | 0.00 | 0.00 | 0.00 | 58 | 1016.6 |
| 20260510001549 | 12 | 59 | 8.0 | 16.1 | 0.00 | 0.00 | 0.00 | 58 | 1016.6 |
| 20260510000050 | 12 | 36 | 4.8 | 16.1 | 0.00 | 0.00 | 0.00 | 58 | 1016.9 |
| 20260509234543 | 12 | 20 | 3.2 | 14.5 | 0.00 | 0.00 | 0.00 | 57 | 1017.0 |
| 20260509233039 | 12 | 51 | 4.8 | 12.9 | 0.00 | 0.00 | 0.00 | 57 | 1017.1 |
| 20260509231540 | 12 | 34 | 6.4 | 16.1 | 0.00 | 0.00 | 0.00 | 56 | 1017.0 |
| 20260509230036 | 12 | 96 | 6.4 | 17.7 | 0.00 | 0.00 | 0.00 | 55 | 1017.3 |
| 20260509224533 | 12 | 39 | 4.8 | 16.1 | 0.00 | 0.00 | 0.00 | 55 | 1017.1 |
| 20260509223032 | 12 | 63 | 6.4 | 17.7 | 0.00 | 0.00 | 0.00 | 55 | 1017.0 |
| 20260509221529 | 12 | 82 | 4.8 | 16.1 | 0.00 | 0.00 | 0.00 | 55 | 1017.0 |
| 20260509220026 | 12 | 59 | 3.2 | 14.5 | 0.00 | 0.00 | 0.00 | 55 | 1017.0 |
| 20260509214525 | 12 | 1 | 4.8 | 16.1 | 0.00 | 0.00 | 0.00 | 55 | 1017.0 |
| 20260509213031 | 12 | 44 | 8.0 | 19.3 | 0.00 | 0.00 | 0.00 | 55 | 1017.0 |
| 20260509211524 | 12 | 56 | 9.7 | 17.7 | 0.00 | 0.00 | 0.00 | 55 | 1017.0 |
| 20260509210024 | 12 | 39 | 8.0 | 20.9 | 0.00 | 0.00 | 0.00 | 56 | 1017.1 |
| 20260509204523 | 12 | 33 | 8.0 | 17.7 | 0.00 | 0.00 | 0.00 | 56 | 1017.0 |
| 20260509203024 | 12 | 2 | 8.0 | 14.5 | 0.00 | 0.00 | 0.00 | 56 | 1017.1 |
| 20260509201522 | 12 | 75 | 3.2 | 12.9 | 0.00 | 0.00 | 0.00 | 57 | 1017.0 |
| 20260509200021 | 12 | 39 | 6.4 | 17.7 | 0.00 | 0.00 | 0.00 | 57 | 1016.9 |
| 20260509194521 | 13 | 20 | 3.2 | 9.7 | 0.00 | 0.00 | 0.00 | 55 | 1016.8 |
| 20260509193028 | 13 | 39 | 4.8 | 12.9 | 0.00 | 0.00 | 0.00 | 55 | 1016.8 |
| 20260509191532 | 13 | 56 | 4.8 | 19.3 | 0.00 | 0.00 | 0.00 | 55 | 1016.6 |
| 20260509190023 | 13 | 49 | 4.8 | 14.5 | 0.00 | 0.00 | 0.00 | 54 | 1016.8 |
| 20260509184532 | 14 | 23 | 4.8 | 11.3 | 0.00 | 0.00 | 0.00 | 50 | 1016.7 |
| 20260509183028 | 14 | 75 | 3.2 | 11.3 | 0.00 | 0.00 | 0.00 | 50 | 1016.7 |
| 20260509181518 | 14 | 27 | 4.8 | 17.7 | 0.00 | 0.00 | 0.00 | 52 | 1016.7 |
| 20260509180019 | 14 | 52 | 8.0 | 16.1 | 0.00 | 0.00 | 0.00 | 52 | 1016.6 |
| 20260509174522 | 14 | 352 | 8.0 | 22.5 | 0.00 | 0.00 | 0.00 | 52 | 1016.6 |
| 20260509173018 | 15 | 6 | 8.0 | 20.9 | 0.00 | 0.00 | 0.00 | 51 | 1016.5 |
| 20260509171516 | 15 | 33 | 6.4 | 20.9 | 0.00 | 0.00 | 0.00 | 50 | 1016.5 |
| 20260509170022 | 15 | 11 | 9.7 | 20.9 | 0.00 | 0.00 | 0.00 | 49 | 1016.5 |
| 20260509164515 | 16 | 51 | 11.3 | 22.5 | 0.00 | 0.00 | 0.00 | 49 | 1016.7 |
| 20260509163026 | 16 | 58 | 9.7 | 24.1 | 0.00 | 0.00 | 0.00 | 51 | 1016.8 |
| 20260509161514 | 16 | 75 | 11.3 | 24.1 | 0.00 | 0.00 | 0.00 | 49 | 1016.9 |
| 20260509160015 | 16 | 51 | 9.7 | 20.9 | 0.00 | 0.00 | 0.00 | 47 | 1016.9 |
| 20260509154512 | 16 | 3 | 11.3 | 22.5 | 0.00 | 0.00 | 0.00 | 47 | 1016.9 |
| 20260509153017 | 16 | 53 | 9.7 | 22.5 | 0.00 | 0.00 | 0.00 | 48 | 1016.7 |
| 20260509151512 | 16 | 23 | 12.9 | 20.9 | 0.00 | 0.00 | 0.00 | 49 | 1016.8 |
| 20260509150011 | 16 | 45 | 9.7 | 20.9 | 0.00 | 0.00 | 0.00 | 48 | 1016.8 |
| 20260509144509 | 16 | 353 | 11.3 | 25.7 | 0.00 | 0.00 | 0.00 | 49 | 1016.7 |
| 20260509143009 | 16 | 64 | 9.7 | 22.5 | 0.00 | 0.00 | 0.00 | 50 | 1016.9 |
| 20260509141507 | 16 | 59 | 4.8 | 22.5 | 0.00 | 0.00 | 0.00 | 51 | 1016.9 |
| 20260509140011 | 17 | 49 | 8.0 | 22.5 | 0.00 | 0.00 | 0.00 | 51 | 1017.0 |
| 20260509134506 | 17 | 19 | 9.7 | 22.5 | 0.00 | 0.00 | 0.00 | 50 | 1016.9 |
| 20260509133004 | 17 | 345 | 9.7 | 22.5 | 0.00 | 0.00 | 0.00 | 49 | 1017.1 |
| 20260509131504 | 18 | 44 | 8.0 | 19.3 | 0.00 | 0.00 | 0.00 | 47 | 1017.2 |
| 20260509130002 | 18 | 54 | 8.0 | 20.9 | 0.00 | 0.00 | 0.00 | 45 | 1017.2 |
| 20260509124601 | 18 | 49 | 8.0 | 17.7 | 0.00 | 0.00 | 0.00 | 44 | 1017.3 |
| 20260509123058 | 18 | 15 | 6.4 | 25.7 | 0.00 | 0.00 | 0.00 | 46 | 1017.4 |
| 20260509121618 | 18 | 61 | 8.0 | 20.9 | 0.00 | 0.00 | 0.00 | 47 | 1017.6 |
| 20260509120055 | 17 | 33 | 8.0 | 20.9 | 0.00 | 0.00 | 0.00 | 47 | 1017.7 |
| 20260509114559 | 17 | 39 | 9.7 | 20.9 | 0.00 | 0.00 | 0.00 | 47 | 1017.8 |